Location: Boursonne
(49.2024°N, 3.0468°E)
Time: 08:24:38
(UTC+00:00)

Meteor 1-20 Rocket - Pass Details

Date: 03 March 2021
Orbit: 820 x 891 km, 81.2° (Epoch: 11 April)

Event Time Altitude Azimuth Distance (km) Brightness Sun altitude
Rises 18:07:42 0° 182° (S) 3,339 7.4 -6.3°
Reaches altitude 10° 18:10:05 10° 181° (S) 2,411 6.6 -6.6°
Maximum altitude 18:15:30 71° 98° (E) 874 4.1 -7.5°
Drops below altitude 10° 18:20:59 10° 16° (NNE) 2,446 6.5 -8.4°
Sets 18:23:25 0° 14° (NNE) 3,392 7.2 -8.8°
